User: anonymous   Login
Location: Vancouver
(49.2500°N, 123.1330°W)
Time: 20:27:36
(UTC-08:00)
Language:

Cosmos 2333 Rocket - Orbit

View from above orbital plane
View from above orbital plane
View from above satellite
View from above satellite

Ground track
Ground track

The orbit data is extracted from the following two-line orbital elements,

1 24298U 96051B   18054.55545309 -.00000145 +00000-0 -52175-4 0  9996
2 24298 070.8396 252.3263 0016257 177.4941 182.6264 14.12464828107059
Epoch (UTC): 23 February 2018 13:19:51
Eccentricity: 0.0016257
inclination: 70.8396°
perigee height: 839 km
apogee height: 863 km
right ascension of ascending node: 252.3263°
argument of perigee: 177.4941°
revolutions per day: 14.12464828
mean anomaly at epoch: 182.6264°
orbit number at epoch: 10705

The dashed part of the orbit path shows where the satellite is in the earth's shadow,  

DLR